Weather Roundup
Issued by NWS

Home | Current Version | Previous Version | Text Only | Print | Product List | Glossary On
Versions: 1 2 3 4 5 6 7 8 9 10 11 12 13 14 15 16 17 18 19 20 21 22 23 24 25 26 27 28 29 30 31 32 33 34 35 36 37 38 39 40 41 42 43 44 45 46 47 48 49 50
000
NZUS93 KARX 281759
HRRWXR

CURRENT HOURLY OBSERVATIONS ACROSS
MUCH OF THE UPPER MISSISSIPPI VALLEY
NATIONAL WEATHER SERVICE LA CROSSE WI
100 PM CDT SAT MAR 28 2015


...SOUTHEAST MINNESOTA...


CITY           SKY/WX    TMP DP  RH WIND       PRES   REMARKS
ROCHESTER      SUNNY     31  18  58 S12       30.25F WCI  22
ROCHESTER/MAYO FAIR      33  14  45 S12       30.26S WCI  25
WINONA         SUNNY     37  14  38 S6        30.29F WCI  33
AUSTIN         SUNNY     36  18  48 SE8       30.23F WCI  29
ALBERT LEA     SUNNY     39  16  38 S9        30.21F WCI  33
DODGE CENTER   SUNNY     32  23  69 SE10      30.23F WCI  24
PRESTON        SUNNY     32  19  58 S9        30.26F WCI  24
OWATONNA       SUNNY     36  19  51 S8        30.22F WCI  29
FARIBAULT      SUNNY     37  19  48 S12       30.23F WCI  30
$$

...ELSEWHERE IN MINNESOTA...


CITY           SKY/WX    TMP DP  RH WIND       PRES   REMARKS
MINNEAPOLIS    SUNNY     39  14  36 SE15      30.22F WCI  31
INTNL FALLS    SUNNY     41  11  29 S9G25     30.03F
DULUTH         SUNNY     39   8  27 S16       30.13F WCI  30
RED WING       SUNNY     39  12  33 SW8       30.25F WCI  34
REDWOOD FALLS  MOSUNNY   42  25  50 S18G26    30.15F
MANKATO        SUNNY     39  19  45 S12G21    30.21F WCI  32
WORTHINGTON    PTSUNNY   43  27  52 S17       30.14F
FAIRMONT       SUNNY     39   9  28 S17G26    30.18F WCI  30
$$

...SOUTHWEST WISCONSIN...


CITY           SKY/WX    TMP DP  RH WIND       PRES   REMARKS
LA CROSSE      SUNNY     39  11  31 S8        30.28F WCI  33
PRAIRIE DU CHI SUNNY     35   8  31 S3        30.31S
BOSCOBEL       SUNNY     36  14  40 SW8       30.32S WCI  30
LONE ROCK      NOT AVBL
PLATTEVILLE    SUNNY     35  14  42 S8        30.30S WCI  28
FORT MC COY    SUNNY     38   6  27 S8        30.29F WCI  32
VIROQUA        FAIR      34  13  41 SW7       30.27S WCI  27
WIS DELLS      NOT AVBL
$$

...ELSEWHERE IN WISCONSIN...


CITY           SKY/WX    TMP DP  RH WIND       PRES   REMARKS
MILWAUKEE      MOSUNNY   32  16  51 E9        30.33F WCI  24
MADISON        MOSUNNY   35  11  36 S8        30.30F WCI  29
GREEN BAY      SUNNY     34  21  59 S6        30.30F WCI  29
EAU CLAIRE     SUNNY     39  10  30 SW10      30.23F WCI  32
BLACK RVR FLS  FAIR      39   3  22 NW3       30.26F
MEDFORD        SUNNY     33  12  42 S9        30.22F WCI  25
WAUSAU         SUNNY     35   9  33 SW7       30.22F WCI  29
WIS RAPIDS     SUNNY     38   5  25 SW12      30.28F WCI  30
MARSHFIELD     SUNNY     38   8  29 VRB7      30.24F WCI  33
RICE LAKE      SUNNY     38   9  30 S10       30.23F WCI  30
$$

...NORTHEAST IOWA...


CITY           SKY/WX    TMP DP  RH WIND       PRES   REMARKS
DECORAH        SUNNY     32  16  51 SE9       30.27S WCI  24
MASON CITY     SUNNY     40  17  39 SE14G20   30.23F WCI  32
CHARLES CITY   SUNNY     37  14  38 S9        30.25F WCI  31
OELWEIN        SUNNY     37  14  38 VRB7G15   30.28S WCI  32
$$

...ELSEWHERE IN IOWA...


CITY           SKY/WX    TMP DP  RH WIND       PRES   REMARKS
DES MOINES     MOSUNNY   46  12  25 S13       30.22F
IOWA CITY      SUNNY     39  14  36 SE7       30.31F WCI  34
FORT DODGE     MOSUNNY   45  18  33 S15       30.20F
$$

...NORTHERN ILLINOIS...


CITY           SKY/WX    TMP DP  RH WIND       PRES   REMARKS
CHICAGO-OHARE  MOSUNNY   33   9  36 NE8       30.33F WCI  26
CHICAGO-MIDWAY MOSUNNY   34   9  35 NE8       30.35S WCI  27
MOLINE         SUNNY     38  10  31 SE6       30.32F WCI  33
ROCKFORD       MOSUNNY   37   9  31 VRB3      30.34F
PEORIA         SUNNY     39  11  31 E7        30.34F WCI  34
$$

NOTE: "FAIR" INDICATES FEW OR NO CLOUDS BELOW 12,000 FEET WITH NO
SIGNIFICANT WEATHER AND/OR OBSTRUCTIONS TO VISIBILITY. WIND
SPEEDS ARE IN MILES-PER-HOUR.



USA.gov is the U.S. government's official web portal to all federal, state and local government web resources and services.